Regional Weather Roundup
Issued by NWS

Home | Current Version | Previous Version | Text Only | Print | Product List | Glossary Off
Versions: 1 2 3 4 5 6 7 8 9 10 11 12 13 14 15 16 17 18 19 20 21 22 23 24 25 26 27 28 29 30 31 32 33 34 35 36 37 38 39 40 41 42 43 44 45 46 47 48 49 50

292
ASUS45 KBOU 260007
RWRCO

WEATHER ROUNDUP FOR COLORADO
NATIONAL WEATHER SERVICE DENVER/BOULDER CO
600 PM MDT THU MAY 25 2017

NOTE: "FAIR" INDICATES FEW OR NO CLOUDS BELOW 12000 FEET WITH NO
SIGNIFICANT WEATHER AND/OR OBSTRUCTIONS TO VISIBILITY.

COZ001>005-013-030-031-260100-
...NORTHWEST COLORADO...

CITY           SKY/WX    TMP DP  RH WIND       PRES   REMARKS
CRAIG          LGT RAIN  55  46  71 SE8       29.77S
HAYDEN         PTSUNNY   54  39  58 N3        29.79S
MEEKER         PTSUNNY   57  46  66 NE8       29.76R
RABBIT EARS PA FAIR      36  34  93 W8G18     29.94S
STEAMBOAT SPGS FAIR      49  40  72 W3        29.80F
WALDEN           N/A     41  36  81 S9        29.87F
$$

COZ006>008-011-260100-
...WEST CENTRAL VALLEYS...

CITY           SKY/WX    TMP DP  RH WIND       PRES   REMARKS
GRAND JUNCTION FAIR      79  26  14 W14G28    29.61S
MONTROSE       PTSUNNY   72  25  17 S17G23    29.69S
EAGLE          PTSUNNY   64  32  29 SW23G30   29.76R
RIFLE          FAIR      66  38  35 NW17      29.70R
DELTA          FAIR      78  23  13 W18G28    29.65S
NUCLA          FAIR      72  23  16 NW15G22   29.77R
$$

COZ017>023-064>068-260100-
...SOUTHWEST COLORADO...

CITY           SKY/WX    TMP DP  RH WIND       PRES   REMARKS
DURANGO        FAIR      72  20  14 W18G30    29.75F
CORTEZ         FAIR      79  20  11 W23G37    29.72R
PAGOSA SPRINGS NOT AVBL
TELLURIDE      CLOUDY    59  21  23 SW13      29.94S
WOLF CREEK PAS PTSUNNY   43  19  39 SW30G40   30.11S
$$

COZ009-010-012-014-032>034-037-058>063-260100-
...CENTRAL COLORADO...

CITY           SKY/WX    TMP DP  RH WIND       PRES   REMARKS
ASPEN          PTSUNNY   56  36  47 SE9       29.85F
BUENA VISTA    FAIR      66  20  16 SW8G24    29.80S
COPPER MTN     LGT SNOW  39  30  70 NW20G33   30.05R
BERTHOUD PASS  PTSUNNY   36  27  69 W28G47    30.03R
COTTONWOOD PAS FAIR      59  16  18 W13G39    29.91S
GUNNISON       FAIR      63  27  25 W18G24    29.83R
KREMMLING      FAIR      59  41  51 NW6G16    29.82S
LEADVILLE      PTSUNNY   50  24  36 W15G23    29.93R
MONARCH PASS   PTSUNNY   43  21  42 W40G49    30.13F
SALIDA         FAIR      71  20  14 SW20G31   29.85S
SUNLIGHT       CLOUDY    41  27  56 SW26G44   29.95F
WILKERSON PASS FAIR      46  19  34 SW18G31   29.99F
$$

COZ069>075-260100-
...SAN LUIS VALLEY/SANGRE DE CRISTO MOUNTAINS...

CITY           SKY/WX    TMP DP  RH WIND       PRES   REMARKS
ALAMOSA        FAIR      72  17  12 SW31G38   29.79R
DEL NORTE      FAIR      69  20  15 SW23G35   29.82R
LA VETA PASS   FAIR      57  14  18 MISG      30.05S
SAGUACHE       FAIR      64  25  22 NW14      29.80S
$$

COZ035-036-038>040-260100-
...NORTHERN COLORADO FRONT RANGE...

CITY           SKY/WX    TMP DP  RH WIND       PRES   REMARKS
DENVER INTL AP PTSUNNY   65  43  44 N9        29.67R
DMNS CITY PARK   N/A     67  42  39 E7G17     29.67R
AURORA         PTSUNNY   67  42  39 E9        29.69R
FRONT RANGE AP PTSUNNY   66  45  45 NE7       29.69R
ERIE MUNI ARPT FAIR      66  40  38 NE7       29.65R
BOULDER MUN AP FAIR      64  39  39 N6        29.66R
CENTENNIAL     PTSUNNY   67  39  35 E8        29.68S
BROOMFIELD     NOT AVBL
FORT COLLINS   FAIR      63  47  55 N15       29.72R
LONGMONT       FAIR      66  40  38 N9        29.68R
$$

COZ041-046-047-076>085-087-088-260100-
...PIKES PEAK/PALMER DIVIDE AND SOUTHERN FOOTHILLS...

CITY           SKY/WX    TMP DP  RH WIND       PRES   REMARKS
COLO. SPRINGS  PTSUNNY   68  40  35 N26G32    29.70R
A. F. ACADEMY  PTSUNNY   64  37  37 N17       29.72S
SCHRIEVER AFB  FAIR      67  44  44 N26G39    29.69R
CHEYENNE MTN   PTSUNNY   64  35  34 N15G28    29.69R
ELLICOTT       FAIR     N/A N/A N/A N28G37    29.69R
FALCON         FAIR      63  37  37 N14G23    29.74F
FORT CARSON    FAIR      70  40  34 N21G35    29.67R
LIMON          FAIR      60  45  57 NE21G31   29.64S
MONUMENT HILL  LGT RAIN  55  37  50 E12G18    29.78F
CANON CITY     NOT AVBL
WALSENBURG     FAIR      79  23  12 SW25G37   29.64F
TRINIDAD       FAIR      81  17   9 W24G33    29.63F
$$

COZ042>045-048>051-090-091-260100-
...NORTHEAST COLORADO...

CITY           SKY/WX    TMP DP  RH WIND       PRES   REMARKS
GREELEY ARPT   FAIR      64  47  53 N18       29.66R
AKRON          FAIR      64  51  62 E7        29.65S
BURLINGTON     FAIR      63  49  60 NE17G30   29.61R
WRAY           PTSUNNY   63  52  67 E7        29.65R
YUMA           CLOUDY    59  52  77 S7        29.67R
STERLING       FAIR      68  55  64 E6        29.60F
HOLYOKE        NOT AVBL
FORT MORGAN    FAIR      67  46  46 E6        29.63R
$$

COZ086-089-092>099-260100-
...SOUTHEAST COLORADO...

CITY           SKY/WX    TMP DP  RH WIND       PRES   REMARKS
PUEBLO         FAIR      84  22  10 NW25G33   29.54R
LA JUNTA       FAIR      88  28  11 W21G29    29.50R
LAMAR          FAIR      89  27  10 MISG      29.45R
SPRINGFIELD      N/A     84  27  12 SW16      29.52S
$$




USA.gov is the U.S. government's official web portal to all federal, state and local government web resources and services.